Telfer, Australia

3:14 AM AWST on December 15, 2017 (GMT +0800)
Telfer

Weather History for YTEF - October, 2011

Change the Weather History Date:

Thursday, October 27, 2011

  Actual Average Record
Temperature  
Mean Temperature 89 °F -  
Max Temperature 102 °F - - ()
Min Temperature 76 °F - - ()
Cooling Degree Days 24    
Growing Degree Days 39 (Base 50)    
Moisture  
Dew Point 54 °F    
Average Humidity 28    
Maximum Humidity 55    
Minimum Humidity 10    
Precipitation  
Precipitation 0.00 in - - ()
Sea Level Pressure  
Sea Level Pressure 29.79 in    
Wind  
Wind Speed 6 mph ()    
Max Wind Speed 14 mph    
Max Gust Speed -    
T = Trace of Precipitation, MM = Missing Value Source: Averaged Metar Reports

Daily Weather History Graph

Daily Weather History Graph

Search for Another Location

Airport or City:

Trip Planner

Search our weather history database for the weather conditions in past years. The results will help you decide how hot, cold, wet, or windy it might be!

Date:

Astronomy

Oct. 27, 2011 Rise Set
Actual Time 5:11 AM AWST 5:59 PM AWST
Civil Twilight 4:48 AM AWST 6:22 PM AWST
Nautical Twilight 4:20 AM AWST 6:49 PM AWST
Astronomical Twilight 3:53 AM AWST 7:17 PM AWST
Moon 5:06 AM AWST (10/27) 6:33 PM AWST (10/27)
Length of Visible Light 13h 34m
Length of Day
12h 48m
New Moon, 0% of the Moon is Illuminated
Oct 27
New Moon
Nov 3
First Quarter
Nov 11
Full
Nov 18
Last Quarter
Nov 25
New

Hourly Weather History & Observations

Time (AWST) Temp. Heat Index Dew Point Humidity Pressure Visibility Wind Dir Wind Speed Gust Speed Precip Events Conditions
12:00 AM 86 °F - 64 °F 38% 29.77 in - Calm Calm - -  
12:00 AM 86.0 °F 87.3 °F 64.4 °F 48% 29.83 in - Calm Calm - N/A   Unknown
1:00 AM 84.2 °F 86.6 °F 66.2 °F 55% 29.80 in - North 3.5 mph - N/A   Unknown
2:00 AM 81 °F - 59 °F 37% 29.76 in - NW 5.8 mph - -  
2:00 AM 80.6 °F 81.1 °F 59.0 °F 48% 29.80 in - NW 5.8 mph - N/A   Unknown
3:00 AM 79 °F - 57 °F 37% 29.76 in - NW 5.8 mph - -  
3:00 AM 78.8 °F - 57.2 °F 47% 29.80 in - NW 5.8 mph - N/A   Unknown
4:00 AM 78.8 °F - 57.2 °F 47% 29.80 in - NW 6.9 mph - N/A   Unknown
5:00 AM 77 °F - 56 °F 38% 29.78 in - WNW 6.9 mph - -  
5:00 AM 77.0 °F - 57.2 °F 50% 29.83 in - WNW 6.9 mph - N/A   Unknown
6:00 AM 79 °F - 55 °F 34% 29.80 in - WNW 4.6 mph - -  
6:00 AM 78.8 °F - 55.4 °F 44% 29.86 in - WNW 4.6 mph - N/A   Unknown
7:00 AM 84.2 °F 82.8 °F 53.6 °F 35% 29.86 in - WSW 8.1 mph - N/A   Unknown
8:00 AM 88 °F - 52 °F 19% 29.84 in - South 11.5 mph - -  
8:00 AM 87.8 °F - 51.8 °F 29% 29.89 in - South 11.5 mph - N/A   Unknown
9:00 AM 92 °F - 52 °F 16% 29.83 in - South 13.8 mph - -  
9:00 AM 91.4 °F - 51.8 °F 26% 29.89 in - South 13.8 mph - N/A   Unknown
10:00 AM 95.0 °F - 51.8 °F 23% 29.86 in - SE 11.5 mph - N/A   Unknown
11:00 AM 97 °F - 52 °F 14% 29.79 in - SSE 10.4 mph - -  
11:00 AM 96.8 °F - 51.8 °F 22% 29.83 in - SSE 10.4 mph - N/A   Unknown
12:00 PM 99 °F - 51 °F 12% 29.77 in - SSW 9.2 mph - -  
12:00 PM 98.6 °F - 50.0 °F 19% 29.80 in - SSW 9.2 mph - N/A   Unknown
1:00 PM 100.4 °F - 50.0 °F 18% 29.77 in - West 10.4 mph - N/A   Unknown
2:00 PM 101 °F - 50 °F 10% 29.71 in - WNW 11.5 mph - -  
2:00 PM 102.2 °F - 50.0 °F 17% 29.77 in - WNW 11.5 mph - N/A   Unknown
3:00 PM 98 °F - 50 °F 12% 29.70 in - West 4.6 mph - -  
3:00 PM 98.6 °F - 50.0 °F 19% 29.74 in - West 4.6 mph - N/A   Unknown
4:00 PM 100.4 °F - 50.0 °F 18% 29.74 in - WNW 13.8 mph - N/A   Unknown
5:00 PM 99 °F - 51 °F 12% 29.69 in - NW 11.5 mph - -  
5:00 PM 98.6 °F - 50.0 °F 19% 29.74 in - NW 11.5 mph - N/A   Unknown
6:00 PM 95 °F - 50 °F 13% 29.71 in - NW 6.9 mph - -  
6:00 PM 95.0 °F - 50.0 °F 22% 29.77 in - NW 6.9 mph - N/A   Unknown
7:00 PM 91.4 °F - 50.0 °F 24% 29.77 in - NW 4.6 mph - N/A   Unknown
8:00 PM 90 °F - 50 °F 16% 29.75 in - NNW 5.8 mph - -  
8:00 PM 89.6 °F - 50.0 °F 26% 29.80 in - NNW 5.8 mph - N/A   Unknown
9:00 PM 91 °F - 52 °F 17% 29.78 in - SW 10.4 mph - -  
9:00 PM 91.4 °F - 51.8 °F 26% 29.83 in - SW 10.4 mph - N/A   Unknown
10:00 PM 86.0 °F 84.9 °F 57.2 °F 37% 29.83 in - South 13.8 mph - N/A   Unknown
11:00 PM 84 °F - 58 °F 31% 29.78 in - SSE 10.4 mph - -  
11:00 PM 84.2 °F 83.5 °F 57.2 °F 40% 29.83 in - SSE 10.4 mph - N/A   Unknown